Stations météo

réclame
Mon MeteoGroup
Elphin, Grande-Bretagne (99153): Température de l'air & dewpoint: 18.01.2018 03:00:00 - 24.01.2018 03:00:00 (GMT)Elphin, Grande-Bretagne (99153): Quantités de précipitations: 18.01.2018 03:00:00 - 24.01.2018 03:00:00 (GMT)
Date & Time tt [°C] td [°C] rr [mm]
24.01.2018 03:00:00 3,8 2,0 -
24.01.2018 02:00:00 4,2 1,9 0,0
24.01.2018 01:00:00 3,1 1,3 0,0
24.01.2018 00:00:00 4,2 1,5 0,0
23.01.2018 23:00:00 4,9 1,9 0,0
23.01.2018 22:00:00 5,1 2,4 0,0
23.01.2018 21:00:00 4,9 1,8 0,0
23.01.2018 20:00:00 5,3 1,7 0,0
23.01.2018 19:00:00 4,9 2,0 0,4
23.01.2018 18:00:00 6,2 3,8 1,0
23.01.2018 17:00:00 4,6 4,1 2,6
23.01.2018 16:00:00 4,9 2,6 0,4
23.01.2018 15:00:00 6,0 4,5 2,2
23.01.2018 14:00:00 6,9 5,0 0,6
23.01.2018 13:00:00 6,6 4,8 1,0
23.01.2018 12:00:00 5,9 4,8 4,0
23.01.2018 11:00:00 5,8 5,6 2,0
23.01.2018 10:00:00 5,5 5,0 1,6
23.01.2018 09:00:00 6,0 5,5 2,8
23.01.2018 08:00:00 6,9 6,5 1,4
23.01.2018 07:00:00 7,8 7,0 1,0
23.01.2018 06:00:00 8,2 7,0 1,2
23.01.2018 05:00:00 8,2 6,9 0,2
23.01.2018 04:00:00 7,8 6,3 2,0
23.01.2018 03:00:00 5,8 5,1 2,4
23.01.2018 02:00:00 5,2 4,4 1,2
23.01.2018 01:00:00 5,4 4,2 0,0
23.01.2018 00:00:00 6,1 4,6 0,0
22.01.2018 23:00:00 6,1 3,5 0,0
22.01.2018 22:00:00 6,7 4,2 0,0
22.01.2018 21:00:00 6,2 3,8 0,0
22.01.2018 20:00:00 6,1 3,4 0,0
22.01.2018 19:00:00 6,2 4,2 0,0
22.01.2018 18:00:00 6,4 4,2 0,2
22.01.2018 17:00:00 6,1 4,3 0,2
22.01.2018 16:00:00 6,3 2,5 0,0
22.01.2018 15:00:00 5,9 3,3 0,6
22.01.2018 14:00:00 6,0 4,3 0,6
22.01.2018 13:00:00 5,9 3,9 0,2
22.01.2018 12:00:00 6,0 3,8 0,0
22.01.2018 11:00:00 6,0 3,6 0,0
22.01.2018 10:00:00 5,5 4,3 2,8
22.01.2018 09:00:00 5,1 4,6 2,4
22.01.2018 08:00:00 5,1 4,1 1,0
22.01.2018 07:00:00 4,8 3,5 1,8
22.01.2018 06:00:00 5,0 3,8 1,4
22.01.2018 05:00:00 4,6 3,2 0,4
22.01.2018 04:00:00 4,4 3,2 2,6
22.01.2018 03:00:00 4,5 2,9 0,2
22.01.2018 02:00:00 4,4 3,1 3,2
22.01.2018 01:00:00 4,9 3,1 2,8
22.01.2018 00:00:00 4,7 3,2 2,8
21.01.2018 23:00:00 - - 4,0
21.01.2018 22:00:00 - - 7,6
21.01.2018 21:00:00 - - 9,6
21.01.2018 20:00:00 - - 5,8
21.01.2018 19:00:00 - - 0,0
21.01.2018 18:00:00 - - 0,0
21.01.2018 17:00:00 - - 0,0
21.01.2018 16:00:00 - - 0,0
21.01.2018 15:00:00 - - 0,0
21.01.2018 14:00:00 - - 0,0
21.01.2018 13:00:00 - - 0,0
21.01.2018 12:00:00 - - 0,0
21.01.2018 11:00:00 - - 0,0
21.01.2018 10:00:00 - - 0,0
21.01.2018 09:00:00 - - 0,0
21.01.2018 08:00:00 - - 0,0
21.01.2018 07:00:00 - - 0,0
21.01.2018 06:00:00 - - 0,0
21.01.2018 05:00:00 - - 0,0
21.01.2018 04:00:00 - - 0,0
21.01.2018 03:00:00 - - 0,0
21.01.2018 02:00:00 - - 0,0
21.01.2018 01:00:00 - - 0,0
21.01.2018 00:00:00 - - -
20.01.2018 23:00:00 - - 0,0
20.01.2018 22:00:00 - - 0,0
20.01.2018 21:00:00 - - 0,0
20.01.2018 20:00:00 - - 0,0
20.01.2018 19:00:00 - - 0,0
20.01.2018 18:00:00 - - -
20.01.2018 17:00:00 - - 0,0
20.01.2018 16:00:00 - - 0,0
20.01.2018 15:00:00 - - 0,2
20.01.2018 14:00:00 - - 0,4
20.01.2018 13:00:00 - - 0,6
20.01.2018 12:00:00 - - 0,0
20.01.2018 11:00:00 - - 0,0
20.01.2018 10:00:00 - - 0,0
20.01.2018 09:00:00 - - 0,0
20.01.2018 08:00:00 - - 0,0
20.01.2018 07:00:00 - - 0,0
20.01.2018 06:00:00 - - 0,0
20.01.2018 05:00:00 - - 0,0
20.01.2018 04:00:00 - - 0,0
20.01.2018 03:00:00 - - 0,0
20.01.2018 02:00:00 - - 0,0
20.01.2018 01:00:00 - - 0,0
20.01.2018 00:00:00 - - -
19.01.2018 23:00:00 - - 0,0
19.01.2018 22:00:00 - - 0,0
19.01.2018 21:00:00 - - 0,0
19.01.2018 20:00:00 - - 0,0
19.01.2018 19:00:00 - - 0,0
19.01.2018 18:00:00 - - 0,0
19.01.2018 17:00:00 - - 0,0
19.01.2018 16:00:00 - - 0,0
19.01.2018 15:00:00 - - 0,0
19.01.2018 14:00:00 - - 0,0
19.01.2018 13:00:00 - - 0,2
19.01.2018 12:00:00 - - 0,0
19.01.2018 11:00:00 - - 0,0
19.01.2018 10:00:00 - - 0,0
19.01.2018 09:00:00 - - 0,0
19.01.2018 08:00:00 - - 0,0
19.01.2018 07:00:00 - - 0,0
19.01.2018 06:00:00 - - 0,0
19.01.2018 05:00:00 - - 0,0
19.01.2018 04:00:00 - - 0,0
19.01.2018 03:00:00 - - 0,0
19.01.2018 02:00:00 - - -
19.01.2018 01:00:00 - - -
19.01.2018 00:00:00 - - -
18.01.2018 23:00:00 - - -
18.01.2018 22:00:00 - - -
18.01.2018 21:00:00 - - -
18.01.2018 20:00:00 - - -
18.01.2018 19:00:00 - - -
18.01.2018 18:00:00 - - -
18.01.2018 17:00:00 - - -
18.01.2018 16:00:00 - - -
18.01.2018 15:00:00 - - -
18.01.2018 14:00:00 - - -
18.01.2018 13:00:00 - - -
18.01.2018 12:00:00 - - -
18.01.2018 11:00:00 - - -
18.01.2018 10:00:00 - - -
18.01.2018 09:00:00 - - -
18.01.2018 08:00:00 - - -
18.01.2018 07:00:00 - - -
18.01.2018 06:00:00 - - -
18.01.2018 05:00:00 - - -
18.01.2018 04:00:00 - - -
18.01.2018 03:00:00 - - -

tt = Température de l'air
td = dewpoint
rr = Quantités de précipitations

stations d'obs. à proximité